Main page
METAR-TAF:

METAR-TAF

Airports :

Hemphill County Airport

Canadian, Texas, United States

latitude: 35-54N, longitude: 100-24W, elevation: 2394 ft

Current weather observation

The report was made 22 minutes ago, at 23:15 UTC
Wind 28 mph from the North/Northwest with gusts up to 40 mph
Temperature 66°F
Humidity 28%
Pressure 30.00 in. Hg
Visibility: 10 miles
Clear sky

METAR: KHHF 182315Z AUTO 34024G35KT 10SM CLR 19/00 A3000 RMK AO2 T01871004

Time: 18:37 (23:37 UTC)


TAF: missing

Weather observations and forecasts of more than 4000 airports (METAR and TAF reports).

The available stations are represented by yellow and red dots on the map.

Hover mouse over dot to see the name of the station.

Then click to see weather observations and forecasts.

To change the map : click on the green buttons with a black cross to zoom in, on the green button with a dash to zoom out, or on the green arrows for adjacent maps.


METAR-TAF: